This demonstration page uses our WeatherBlox Daily Observations layout. Learn more.

Left ArrowRight Arrow

44.8408, -93.29828

Hourly Observations for June 1, 2017

Temp ( °F °C ) Dew Point ( °F °C ) Humidity (%) Winds ( mph kmh ) Pressure ( in mb ) Visibility ( mi km ) Precip ( " mm )
12:53 am 00:53 Clear 53 11.7 42 5.6 66 66 Calm 30.04 1017 10 16 0.00 0.00
1:53 am 01:53 Clear 56 13.3 37 2.8 49 49 Calm 30.04 1017 10 16 0.00 0.00
2:53 am 02:53 Clear 53 11.7 42 5.6 66 66 Calm 30.06 1018 10 16 0.00 0.00
3:53 am 03:53 Clear 52 11.1 40 4.4 64 64 Calm 30.06 1018 10 16 0.00 0.00
4:53 am 04:53 Mostly Clear 51 10.6 42 5.6 71 71 Calm 30.07 1018 10 16 0.00 0.00
5:53 am 05:53 Mostly Sunny 50 10 43 6.1 77 77 Calm 30.07 1018 10 16 0.00 0.00
6:53 am 06:53 Mostly Sunny 54 12.2 47 8.3 77 77 Calm 30.08 1019 10 16 0.00 0.00
7:53 am 07:53 Mostly Sunny 59 15 47 8.3 64 64 ENE 5 7 30.09 1019 10 16 0.00 0.00
8:53 am 08:53 Mostly Sunny 64 17.8 41 5 43 43 E 3 6 30.11 1020 10 16 0.00 0.00
9:53 am 09:53 Mostly Sunny 68 20 37 2.8 32 32 VRB 3 6 30.10 1019 10 16 0.00 0.00
10:53 am 10:53 Sunny 71 21.7 37 2.8 29 29 VRB 3 6 30.09 1019 10 16 0.00 0.00
11:53 am 11:53 Mostly Sunny 73 22.8 34 1.1 24 24 NE 3 6 30.08 1019 10 16 0.00 0.00
12:53 pm 12:53 Mostly Sunny 74 23.3 35 1.7 24 24 SSW 6 9 30.06 1018 10 16 0.00 0.00
1:53 pm 13:53 Mostly Sunny 76 24.4 36 2.2 23 23 SSE 7 11 30.05 1018 10 16 0.00 0.00
2:53 pm 14:53 Mostly Sunny 77 25 35 1.7 22 22 SSE 9 15 30.03 1017 10 16 0.00 0.00
3:53 pm 15:53 Sunny 78 25.6 35 1.7 21 21 SSE 8 13 30.01 1016 10 16 0.00 0.00
4:53 pm 16:53 Mostly Sunny 78 25.6 35 1.7 21 21 SE 8 13 30.00 1016 10 16 0.00 0.00
5:53 pm 17:53 Mostly Sunny 79 26.1 33 0.6 19 19 SSE 9 15 29.99 1016 10 16 0.00 0.00
6:53 pm 18:53 Partly Cloudy 78 25.6 32 0 19 19 ESE 5 7 29.99 1016 10 16 0.00 0.00
7:53 pm 19:53 Partly Cloudy 76 24.4 34 1.1 22 22 SSE 3 6 29.98 1015 10 16 0.00 0.00
8:53 pm 20:53 Partly Cloudy 73 22.8 36 2.2 26 26 E 8 13 29.98 1015 10 16 0.00 0.00
9:53 pm 21:53 Mostly Clear 69 20.6 39 3.9 33 33 SE 8 13 29.99 1016 10 16 0.00 0.00
10:53 pm 22:53 Mostly Clear 67 19.4 39 3.9 36 36 SE 7 11 30.00 1016 10 16 0.00 0.00
11:53 pm 23:53 Clear 64 17.8 40 4.4 41 41 SE 7 11 30.00 1016 10 16 0.00 0.00

Powered by AerisWeather